Regional Weather Roundup
Issued by NWS

Home | Current Version | Previous Version | Text Only | Print | Product List | Glossary On
Versions: 1 2 3 4 5 6 7 8 9 10 11 12 13 14 15 16 17 18 19 20 21 22 23 24 25 26 27 28 29 30 31 32 33 34 35 36 37 38 39 40 41 42 43 44 45 46 47 48 49 50
414
ASUS44 KLIX 261211
RWRLA
LOUISIANA WEATHER ROUNDUP
NATIONAL WEATHER SERVICE NEW ORLEANS LA
700 AM CDT TUE JUL 26 2016

NOTE: "FAIR" INDICATES FEW OR NO CLOUDS BELOW 12,000 FEET WITH NO
      SIGNIFICANT WEATHER AND/OR OBSTRUCTIONS TO VISIBILITY.
      SKY/WX - SKY CONDITION AND SIGNIFICANT WEATHER.
      TMP - AIR TEMPERATURE.    DP   - DEWPOINT TEMPERATURE.
      RH  - RELATIVE HUMIDITY.  PRES - PRESSURE.
      HX  - HEAT INDEX.         WCI  - WIND CHILL INDEX.

*  THESE STATIONS ARE NOT NWS OR FAA STATIONS AND ARE NOT UNDER
   NWS QUALITY CONTROL.

LAZ040-048-061>063-065-066-069-261300-
SOUTHEAST LOUISIANA

CITY           SKY/WX    TMP DP  RH WIND       PRES   REMARKS
N.O. AUDUBON     N/A     80  79  97 MISG        N/A
6HR MIN TEMP:  78; 6HR MAX TEMP:  83;

N.O. INTL ARPT PTCLDY    81  77  88 W3        29.92R THUNDER
6HR MIN TEMP:  80; 6HR MAX TEMP:  82;

N.O. LAKEFRONT MOCLDY    82  77  84 E6        29.92S
6HR MIN TEMP:  81; 6HR MAX TEMP:  84;

N.O. DOWNTOWN* FAIR      81  78  91 CALM      29.93
6HR MIN TEMP:  81; 6HR MAX TEMP:  85;

RESERVE*       CLOUDY    77  75  93 CALM      29.93S FOG
6HR MIN TEMP:  77; 6HR MAX TEMP:  78;

SLIDELL        MOCLDY    76  75  97 NE3       29.92F
6HR MIN TEMP:  75; 6HR MAX TEMP:  76; 6HR PCP:  0.02;

BATON ROUGE    MOCLDY    75  72  90 N3        29.95R
6HR MIN TEMP:  74; 6HR MAX TEMP:  76;

BOOTHVILLE     CLOUDY    79  75  87 SW8       29.93R
6HR MIN TEMP:  78; 6HR MAX TEMP:  81; 6HR PCP:  0.04;

BELLE CHASSE   MOCLDY    76  75  97 CALM      29.92R
6HR MIN TEMP:  75; 6HR MAX TEMP:  77;

BOGALUSA*      FAIR      76  73  88 CALM      29.95F
6HR MIN TEMP:  75; 6HR MAX TEMP:  77;

GALLIANO*      PTSUNNY   68  68 100 CALM      29.92S
6HR MIN TEMP:  68; 6HR MAX TEMP:  71;

NEW ROADS*     FAIR      73  73  99 CALM      29.95S
6HR MIN TEMP:  73; 6HR MAX TEMP:  76;

GONZALES*      PTSUNNY   75  75 100 CALM      29.93R
6HR MIN TEMP:  74; 6HR MAX TEMP:  77;

HAMMOND*       PTCLDY    73  72  94 CALM      29.94R
HOUMA*         PTCLDY    75  75 100 CALM      29.93S
PORT FOURCHON* PTSUNNY   79  75  89 W8G15     29.93R FOG

$$

LAZ041-044-053-054-261300-
SOUTHWEST LOUISIANA

CITY           SKY/WX    TMP DP  RH WIND       PRES   REMARKS
LAKE CHARLES   FOG       73  73 100 NE5       29.94R VSB 1/4
6HR MIN TEMP:  73; 6HR MAX TEMP:  75;

LAFAYETTE      FOG       75  74  96 NE6       29.94S VSB 1/2
6HR MIN TEMP:  75; 6HR MAX TEMP:  76;

PATTERSON      FOG       76  76 100 CALM      29.95R VSB 1/4
6HR MIN TEMP:  76; 6HR MAX TEMP:  77; 6HR PCP:  0.04;

SALT POINT       N/A     79  76  90 CALM        N/A
6HR MIN TEMP:  77; 6HR MAX TEMP:  79;

NEW IBERIA     FOG       74  73  97 N6        29.95R VSB 3/4
6HR MIN TEMP:  74; 6HR MAX TEMP:  75;

CHENAULT AIRPK FOG       73  73 100 CALM      29.94S VSB 1/4

$$

LAZ027-028-261300-
CENTRAL LOUISIANA

CITY           SKY/WX    TMP DP  RH WIND       PRES   REMARKS
FORT POLK      FOG       72  72 100 NE5       29.95S VSB 5/8
6HR MIN TEMP:  72; 6HR MAX TEMP:  74;

ALEXANDRIA INT CLOUDY    74  74 100 NE5       29.94S
6HR MIN TEMP:  73; 6HR MAX TEMP:  74;

ALEXANDRIA     FOG       75  75 100 CALM      29.96S VSB<1/4
6HR MIN TEMP:  72; 6HR MAX TEMP:  75;


$$

LAZ001-002-261300-
NORTHWEST LOUISIANA

CITY           SKY/WX    TMP DP  RH WIND       PRES   REMARKS
SHREVEPORT     CLEAR     76  74  93 CALM      29.96R
6HR MIN TEMP:  74; 6HR MAX TEMP:  79;

BARKSDALE AFB  CLEAR     73  73 100 SE2       29.96R
6HR MIN TEMP:  73; 6HR MAX TEMP:  76;

DTN SHREVEPORT CLEAR     77  74  90 CALM      29.96R
6HR MIN TEMP:  75; 6HR MAX TEMP:  80;


$$

LAZ014-016-261300-
NORTHEAST LOUISIANA

CITY           SKY/WX    TMP DP  RH WIND       PRES   REMARKS
MONROE         PTCLDY    75  75 100 NE3       29.98S
6HR MIN TEMP:  73; 6HR MAX TEMP:  76;

TALLULAH       PTCLDY    77  74  90 E3        29.98R
6HR MIN TEMP:  73; 6HR MAX TEMP:  77;


$$





USA.gov is the U.S. government's official web portal to all federal, state and local government web resources and services.